FW4125 Weather Reports


Display with metric or nautical units.
time (UTC)temp
F
wind
direction
speed
MPH
gust
MPH
rain 1hr
in
rain 24hr
in
rain mn
in
humidity
%
barometer
mb
20260508060027 62 198 0.0 0.0 0.00 0.00 0.00 59
20260508054525 62 198 0.0 0.0 0.00 0.00 0.00 58
20260508053039 62 198 0.0 0.0 0.00 0.00 0.00 58
20260508051543 62 198 0.0 0.0 0.00 0.00 0.00 57
20260508050030 62 198 0.0 0.0 0.00 0.00 0.00 56
20260508044533 62 198 0.0 0.0 0.00 0.00 0.00 56
20260508043033 62 198 0.0 0.0 0.00 0.00 0.00 55
20260508041535 62 198 0.0 0.0 0.00 0.00 0.00 54
20260508040035 63 198 0.0 0.0 0.00 0.00 0.00 53
20260508034538 63 198 0.0 0.0 0.00 0.00 0.00 52
20260508033048 63 198 0.0 0.0 0.00 0.00 0.00 51
20260508031541 64 198 0.0 0.0 0.00 0.00 0.00 50
20260508030047 64 198 0.0 0.0 0.00 0.00 0.00 50
20260508024544 65 198 0.0 0.0 0.00 0.00 0.00 48
20260508023042 65 198 0.0 0.0 0.00 0.00 0.00 47
20260508021551 66 198 0.0 0.0 0.00 0.00 0.00 46
20260508020053 66 198 0.0 0.0 0.00 0.00 0.00 46
20260508014548 67 198 0.0 0.0 0.00 0.00 0.00 45
20260508013050 68 198 0.0 0.0 0.00 0.00 0.00 45
20260508011555 68 198 0.0 0.0 0.00 0.00 0.00 43
20260508010114 69 198 0.0 0.0 0.00 0.00 0.00 42
20260508004503 69 198 0.0 2.0 0.00 0.00 0.00 41
20260508003007 70 210 1.0 3.0 0.00 0.00 0.00 41
20260508001507 71 173 0.0 0.0 0.00 0.00 0.00 42
20260508000011 72 173 1.0 3.0 0.00 0.00 0.00 42
20260507234515 72 172 1.0 4.0 0.00 0.00 0.00 40
20260507233016 72 317 0.0 0.0 0.00 0.00 0.00 39
20260507231520 72 316 0.0 0.0 0.00 0.00 0.00 35
20260507230035 72 317 0.0 2.0 0.00 0.00 0.00 37
20260507224522 72 330 0.0 0.0 0.00 0.00 0.00 38
20260507223050 73 331 0.0 0.0 0.00 0.00 0.00 36
20260507221532 73 330 0.0 0.0 0.00 0.00 0.00 36
20260507220034 73 330 0.0 0.0 0.00 0.00 0.00 35
20260507214548 74 30 0.0 0.0 0.00 0.00 0.00 36
20260507213041 74 30 0.0 0.0 0.00 0.00 0.00 35
20260507211540 75 30 0.0 1.0 0.00 0.00 0.00 33
20260507210046 75 31 0.0 2.0 0.00 0.00 0.00 33
20260507204543 76 31 0.0 2.0 0.00 0.00 0.00 33
20260507203045 76 28 1.0 3.0 0.00 0.00 0.00 31
20260507201602 77 26 0.0 4.0 0.00 0.00 0.00 32
20260507200104 76 194 0.0 3.0 0.00 0.00 0.00 33
20260507194557 76 304 0.0 2.0 0.00 0.00 0.00 34
20260507193052 75 8 1.0 3.0 0.00 0.00 0.00 31
20260507191553 74 40 1.0 3.0 0.00 0.00 0.00 36
20260507190054 74 55 1.0 3.0 0.00 0.00 0.00 36
20260507184553 72 360 1.0 4.0 0.00 0.00 0.00 37
20260507183055 72 337 1.0 4.0 0.00 0.00 0.00 38
20260507181556 70 33 0.0 3.0 0.00 0.00 0.00 39
20260507180054 69 62 1.0 4.0 0.00 0.00 0.00 39
20260507174558 68 31 1.0 3.0 0.00 0.00 0.00 41
20260507173057 67 73 1.0 3.0 0.00 0.00 0.00 44
20260507171601 65 46 1.0 3.0 0.00 0.00 0.00 44
20260507170051 64 220 1.0 4.0 0.00 0.00 0.00 45
20260507164549 64 343 0.0 3.0 0.00 0.00 0.00 48
20260507163045 63 33 1.0 3.0 0.00 0.00 0.00 49
20260507161551 62 277 0.0 3.0 0.00 0.00 0.00 52
20260507160043 62 277 1.0 4.0 0.00 0.00 0.00 53
20260507154545 61 44 0.0 3.0 0.00 0.00 0.00 55
20260507153102 60 44 0.0 3.0 0.00 0.11 0.00 56
20260507151553 59 286 0.0 2.0 0.00 0.11 0.00 59
20260507150051 58 349 1.0 3.0 0.00 0.11 0.00 60
20260507144548 57 27 0.0 3.0 0.00 0.11 0.00 63
20260507143054 57 36 0.0 2.0 0.00 0.11 0.00 64
20260507141553 56 6 0.0 0.0 0.00 0.11 0.00 65
20260507140059 55 10 0.0 0.0 0.00 0.11 0.00 66
20260507134504 55 10 0.0 0.0 0.00 0.11 0.00 65
20260507133007 54 10 0.0 0.0 0.00 0.11 0.00 65
20260507131520 53 10 0.0 0.0 0.00 0.11 0.00 65
20260507130003 53 11 0.0 0.0 0.00 0.11 0.00 65
20260507124504 53 11 0.0 0.0 0.00 0.11 0.00 65
20260507123005 52 12 0.0 0.0 0.00 0.11 0.00 64
20260507121506 52 12 0.0 0.0 0.00 0.11 0.00 64
20260507120006 52 12 0.0 0.0 0.00 0.11 0.00 64
20260507114509 53 12 0.0 0.0 0.00 0.11 0.00 64
20260507113007 53 12 0.0 2.0 0.00 0.11 0.00 64
20260507111510 53 43 0.0 2.0 0.00 0.11 0.00 63
20260507110009 53 42 0.0 0.0 0.00 0.11 0.00 63
20260507104517 53 42 0.0 1.0 0.00 0.11 0.00 63
20260507103015 54 43 0.0 0.0 0.00 0.11 0.00 62
20260507101513 54 43 0.0 0.0 0.00 0.11 0.00 62
20260507100021 54 43 0.0 0.0 0.00 0.11 0.00 62
20260507094519 54 43 0.0 0.0 0.00 0.11 0.00 62
20260507093025 55 43 0.0 0.0 0.00 0.11 0.00 62
20260507091525 55 42 0.0 0.0 0.00 0.11 0.00 62
20260507090023 55 42 0.0 1.0 0.00 0.11 0.00 61
20260507084522 55 42 0.0 0.0 0.00 0.11 0.00 61
20260507083022 56 42 0.0 0.0 0.00 0.11 0.00 61
20260507081525 56 42 0.0 1.0 0.00 0.11 0.00 61
20260507080028 56 42 0.0 0.0 0.00 0.11 0.00 60
20260507074530 57 42 0.0 0.0 0.00 0.11 0.00 60
20260507073033 57 42 0.0 1.0 0.00 0.11 0.00 60
20260507071536 57 42 0.0 0.0 0.00 0.11 0.00 60
20260507070040 57 42 0.0 0.0 0.00 0.11 0.00 59
20260507064544 57 42 0.0 2.0 0.00 0.11 0.00 59
20260507063050 57 42 0.0 0.0 0.00 0.11 0.00 58
20260507061550 58 42 0.0 0.0 0.00 0.11 0.00 57